^^
Saratoga-Weather Station Historical Data
Daily Summary for May 24, 2020 Units:  Metric    English   Both
Daily Weekly Monthly Yearly Custom
  High: Low: Average:
Temperature: 18.1 °C 8.3 °C 13.1 °C
Dew Point: 10.5 °C 6.6 °C 8.8 °C
Humidity: 95% 57% 77%
Wind Speed: 22.7km/h 0km/h 6.6km/h
Wind Gust: 25.7km/h - -
Wind- - West
Pressure: 1031.8 hPa 1028.5 hPa -
Precipitation: 0.0 mm    
Historical Graphs
 
 
Tabular Data for May 24, 2020
Time Temperature Dew Point Pressure Wind Wind Speed Wind Gust Humidity Rainfall Rate (Hourly) solar
00:01 9.6 °C 8.8 °C 1028.8 hPa North 4.7 km/h 6.4 km/h 95% 0.0 mm 0 W/m2
00:06 9.6 °C 8.7 °C 1028.8 hPa West 1.4 km/h 11.3 km/h 94% 0.0 mm 0 W/m2
00:11 9.6 °C 8.7 °C 1028.8 hPa North 3.2 km/h 4.8 km/h 94% 0.0 mm 0 W/m2
00:16 9.6 °C 8.7 °C 1028.8 hPa West 3.2 km/h 9.7 km/h 94% 0.0 mm 0 W/m2
00:21 9.6 °C 8.7 °C 1028.8 hPa West 3.2 km/h 11.3 km/h 94% 0.0 mm 0 W/m2
00:26 9.6 °C 8.7 °C 1028.5 hPa SSW 1.4 km/h 8 km/h 94% 0.0 mm 0 W/m2
00:31 9.7 °C 8.6 °C 1028.8 hPa West 4.7 km/h 11.3 km/h 93% 0.0 mm 0 W/m2
00:36 9.7 °C 8.6 °C 1028.8 hPa Calm   12.9 km/h 93% 0.0 mm 0 W/m2
00:41 9.7 °C 8.6 °C 1028.8 hPa West 3.2 km/h 4.8 km/h 93% 0.0 mm 0 W/m2
00:46 9.7 °C 8.6 °C 1028.8 hPa WSW 1.4 km/h 12.9 km/h 93% 0.0 mm 0 W/m2
00:51 9.6 °C 8.5 °C 1028.5 hPa West 3.2 km/h 6.4 km/h 93% 0.0 mm 0 W/m2
00:56 9.7 °C 8.6 °C 1028.5 hPa South 7.9 km/h 8 km/h 93% 0.0 mm 0 W/m2
01:01 9.7 °C 8.6 °C 1028.5 hPa NNW 1.4 km/h 6.4 km/h 93% 0.0 mm 0 W/m2
01:06 9.7 °C 8.5 °C 1028.5 hPa WSW 1.4 km/h 6.4 km/h 92% 0.0 mm 0 W/m2
01:11 9.6 °C 8.4 °C 1028.5 hPa SW 4.7 km/h 4.8 km/h 92% 0.0 mm 0 W/m2
01:16 9.6 °C 8.4 °C 1028.5 hPa WSW 3.2 km/h 8 km/h 92% 0.0 mm 0 W/m2
01:21 9.6 °C 8.4 °C 1028.5 hPa WSW 7.9 km/h 9.7 km/h 92% 0.0 mm 0 W/m2
01:26 9.6 °C 8.4 °C 1028.5 hPa WNW 4.7 km/h 9.7 km/h 92% 0.0 mm 0 W/m2
01:31 9.6 °C 8.4 °C 1028.5 hPa WNW 1.4 km/h 6.4 km/h 92% 0.0 mm 0 W/m2
01:36 9.6 °C 8.4 °C 1028.5 hPa WNW 4.7 km/h 8 km/h 92% 0.0 mm 0 W/m2
01:41 9.6 °C 8.4 °C 1028.5 hPa WNW 4.7 km/h 6.4 km/h 92% 0.0 mm 0 W/m2
01:46 9.7 °C 8.3 °C 1028.8 hPa NW 7.9 km/h 12.9 km/h 91% 0.0 mm 0 W/m2
01:51 9.7 °C 8.3 °C 1028.8 hPa WNW 11.1 km/h 14.5 km/h 91% 0.0 mm 0 W/m2
01:56 9.7 °C 8.3 °C 1028.8 hPa West 9.7 km/h 14.5 km/h 91% 0.0 mm 0 W/m2
02:01 9.6 °C 8.2 °C 1028.8 hPa WNW 3.2 km/h 8 km/h 91% 0.0 mm 0 W/m2
02:06 9.6 °C 8.2 °C 1028.8 hPa NW 4.7 km/h 12.9 km/h 91% 0.0 mm 0 W/m2
02:11 9.5 °C 8.1 °C 1028.8 hPa WNW 6.4 km/h 8 km/h 91% 0.0 mm 0 W/m2
02:16 9.5 °C 8.1 °C 1028.8 hPa WNW 4.7 km/h 6.4 km/h 91% 0.0 mm 0 W/m2
02:21 9.4 °C 8 °C 1028.8 hPa NW 4.7 km/h 9.7 km/h 91% 0.0 mm 0 W/m2
02:26 9.4 °C 8 °C 1028.8 hPa WSW 4.7 km/h 6.4 km/h 91% 0.0 mm 0 W/m2
02:31 9.3 °C 7.9 °C 1028.8 hPa WNW 4.7 km/h 8 km/h 91% 0.0 mm 0 W/m2
02:36 9.3 °C 7.9 °C 1028.8 hPa WNW 4.7 km/h 14.5 km/h 91% 0.0 mm 0 W/m2
02:41 9.2 °C 7.8 °C 1028.8 hPa North 3.2 km/h 11.3 km/h 91% 0.0 mm 0 W/m2
02:46 9.2 °C 7.8 °C 1028.8 hPa NW 1.4 km/h 14.5 km/h 91% 0.0 mm 0 W/m2
02:51 9.2 °C 7.8 °C 1028.8 hPa Calm   3.2 km/h 91% 0.0 mm 0 W/m2
02:56 9.2 °C 7.6 °C 1028.8 hPa WSW 6.4 km/h 9.7 km/h 90% 0.0 mm 0 W/m2
03:01 9.2 °C 7.6 °C 1028.8 hPa NW 3.2 km/h 9.7 km/h 90% 0.0 mm 0 W/m2
03:06 9.2 °C 7.6 °C 1028.8 hPa WNW 1.4 km/h 6.4 km/h 90% 0.0 mm 0 W/m2
03:11 9.2 °C 7.5 °C 1028.8 hPa Calm   6.4 km/h 89% 0.0 mm 0 W/m2
03:16 9.1 °C 7.5 °C 1028.8 hPa NW 7.9 km/h 9.7 km/h 90% 0.0 mm 0 W/m2
03:21 9 °C 7.4 °C 1028.8 hPa WNW 4.7 km/h 4.8 km/h 90% 0.0 mm 0 W/m2
03:26 9 °C 7.4 °C 1028.8 hPa NW 4.7 km/h 4.8 km/h 90% 0.0 mm 0 W/m2
03:31 8.9 °C 7.3 °C 1028.8 hPa NW 3.2 km/h 3.2 km/h 90% 0.0 mm 0 W/m2
03:36 8.9 °C 7.3 °C 1028.8 hPa NNW 3.2 km/h 4.8 km/h 90% 0.0 mm 0 W/m2
03:41 8.8 °C 7.2 °C 1028.8 hPa NW 4.7 km/h 6.4 km/h 90% 0.0 mm 0 W/m2
03:46 8.8 °C 7.2 °C 1028.8 hPa WNW 3.2 km/h 6.4 km/h 90% 0.0 mm 0 W/m2
03:51 8.8 °C 7.2 °C 1028.8 hPa West 3.2 km/h 6.4 km/h 90% 0.0 mm 0 W/m2
03:56 8.8 °C 7.2 °C 1028.8 hPa NW 3.2 km/h 6.4 km/h 90% 0.0 mm 0 W/m2
04:01 8.9 °C 7.3 °C 1028.8 hPa NW 4.7 km/h 6.4 km/h 90% 0.0 mm 0 W/m2
04:06 8.8 °C 7.2 °C 1028.8 hPa WNW 4.7 km/h 11.3 km/h 90% 0.0 mm 0 W/m2
04:11 8.7 °C 7.2 °C 1028.8 hPa WNW 3.2 km/h 9.7 km/h 90% 0.0 mm 0 W/m2
04:16 8.7 °C 7.2 °C 1029.1 hPa WSW 4.7 km/h 6.4 km/h 90% 0.0 mm 0 W/m2
04:21 8.7 °C 7.2 °C 1029.1 hPa West 4.7 km/h 11.3 km/h 90% 0.0 mm 0 W/m2
04:26 8.6 °C 7.1 °C 1029.1 hPa WSW 7.9 km/h 8 km/h 90% 0.0 mm 0 W/m2
04:31 8.6 °C 7.1 °C 1029.1 hPa WNW 3.2 km/h 11.3 km/h 90% 0.0 mm 0 W/m2
04:36 8.7 °C 7.2 °C 1029.1 hPa NW 3.2 km/h 6.4 km/h 90% 0.0 mm 0 W/m2
04:41 8.7 °C 7.2 °C 1029.1 hPa West 3.2 km/h 6.4 km/h 90% 0.0 mm 0 W/m2
04:46 8.6 °C 7.1 °C 1029.5 hPa WNW 3.2 km/h 6.4 km/h 90% 0.0 mm 0 W/m2
04:51 8.5 °C 7 °C 1029.5 hPa West 3.2 km/h 12.9 km/h 90% 0.0 mm 0 W/m2
04:56 8.4 °C 6.9 °C 1029.5 hPa SW 1.4 km/h 4.8 km/h 90% 0.0 mm 0 W/m2
05:01 8.4 °C 6.9 °C 1029.5 hPa NW 1.4 km/h 6.4 km/h 90% 0.0 mm 0 W/m2
05:06 8.4 °C 6.9 °C 1029.5 hPa NNW 3.2 km/h 6.4 km/h 90% 0.0 mm 0 W/m2
05:11 8.3 °C 6.8 °C 1029.5 hPa WNW 4.7 km/h 9.7 km/h 90% 0.0 mm 0 W/m2
05:16 8.3 °C 6.8 °C 1029.5 hPa NNW 3.2 km/h 6.4 km/h 90% 0.0 mm 0 W/m2
05:21 8.3 °C 6.8 °C 1029.5 hPa NNW 6.4 km/h 6.4 km/h 90% 0.0 mm 0 W/m2
05:26 8.3 °C 6.8 °C 1029.5 hPa NW 4.7 km/h 11.3 km/h 90% 0.0 mm 0 W/m2
05:31 8.3 °C 6.6 °C 1029.5 hPa NW 6.4 km/h 6.4 km/h 89% 0.0 mm 0 W/m2
05:36 8.3 °C 6.6 °C 1029.5 hPa WSW 4.7 km/h 9.7 km/h 89% 0.0 mm 0 W/m2
05:41 8.3 °C 6.6 °C 1029.5 hPa WNW 4.7 km/h 11.3 km/h 89% 0.0 mm 0 W/m2
05:46 8.4 °C 6.7 °C 1029.5 hPa SW 4.7 km/h 6.4 km/h 89% 0.0 mm 7 W/m2
05:51 8.4 °C 6.7 °C 1029.5 hPa WNW 6.4 km/h 9.7 km/h 89% 0.0 mm 9 W/m2
05:56 8.4 °C 6.7 °C 1029.5 hPa NW 4.7 km/h 9.7 km/h 89% 0.0 mm 11 W/m2
06:01 8.5 °C 6.6 °C 1029.5 hPa WNW 6.4 km/h 9.7 km/h 88% 0.0 mm 14 W/m2
06:06 8.6 °C 6.7 °C 1029.5 hPa West 6.4 km/h 6.4 km/h 88% 0.0 mm 19 W/m2
06:11 8.6 °C 6.7 °C 1029.5 hPa West 4.7 km/h 9.7 km/h 88% 0.0 mm 26 W/m2
06:16 8.7 °C 6.7 °C 1029.5 hPa West 11.1 km/h 11.3 km/h 87% 0.0 mm 37 W/m2
06:21 8.8 °C 6.8 °C 1029.5 hPa WSW 6.4 km/h 11.3 km/h 87% 0.0 mm 47 W/m2
06:26 8.8 °C 6.8 °C 1029.8 hPa West 9.7 km/h 14.5 km/h 87% 0.0 mm 54 W/m2
06:31 8.8 °C 6.8 °C 1029.8 hPa West 13 km/h 16.1 km/h 87% 0.0 mm 58 W/m2
06:36 8.9 °C 6.9 °C 1029.8 hPa West 4.7 km/h 8 km/h 87% 0.0 mm 65 W/m2
06:41 8.9 °C 6.9 °C 1029.8 hPa SSW 6.4 km/h 11.3 km/h 87% 0.0 mm 76 W/m2
06:46 9 °C 7 °C 1029.8 hPa West 3.2 km/h 9.7 km/h 87% 0.0 mm 84 W/m2
06:51 9.1 °C 7.1 °C 1029.8 hPa SW 9.7 km/h 12.9 km/h 87% 0.0 mm 95 W/m2
06:56 9.2 °C 7.1 °C 1029.8 hPa West 3.2 km/h 11.3 km/h 87% 0.0 mm 107 W/m2
07:01 9.2 °C 7.1 °C 1029.8 hPa West 4.7 km/h 9.7 km/h 87% 0.0 mm 116 W/m2
07:06 9.3 °C 7.2 °C 1030.1 hPa WNW 6.4 km/h 8 km/h 87% 0.0 mm 123 W/m2
07:11 9.3 °C 7.2 °C 1030.1 hPa WNW 4.7 km/h 12.9 km/h 87% 0.0 mm 114 W/m2
07:16 9.3 °C 7.1 °C 1030.1 hPa West 6.4 km/h 11.3 km/h 86% 0.0 mm 107 W/m2
07:21 9.4 °C 7.2 °C 1030.1 hPa WNW 6.4 km/h 11.3 km/h 86% 0.0 mm 105 W/m2
07:26 9.4 °C 7.3 °C 1030.1 hPa West 11.1 km/h 12.9 km/h 87% 0.0 mm 118 W/m2
07:31 9.7 °C 7.5 °C 1030.1 hPa West 9.7 km/h 16.1 km/h 86% 0.0 mm 127 W/m2
07:36 9.9 °C 7.7 °C 1030.1 hPa SW 7.9 km/h 12.9 km/h 86% 0.0 mm 139 W/m2
07:41 10.2 °C 7.8 °C 1030.1 hPa West 14.3 km/h 20.9 km/h 85% 0.0 mm 171 W/m2
07:46 10.4 °C 8 °C 1030.1 hPa WSW 11.1 km/h 12.9 km/h 85% 0.0 mm 295 W/m2
07:51 10.6 °C 8 °C 1030.1 hPa WSW 4.7 km/h 19.3 km/h 84% 0.0 mm 276 W/m2
07:56 10.7 °C 8.3 °C 1030.1 hPa WNW 4.7 km/h 12.9 km/h 85% 0.0 mm 297 W/m2
08:01 10.8 °C 8.4 °C 1030.1 hPa West 9.7 km/h 11.3 km/h 85% 0.0 mm 332 W/m2
08:06 10.8 °C 8.4 °C 1030.1 hPa West 6.4 km/h 12.9 km/h 85% 0.0 mm 272 W/m2
08:11 10.9 °C 8.5 °C 1030.1 hPa NW 9.7 km/h 20.9 km/h 85% 0.0 mm 285 W/m2
08:16 10.9 °C 8.5 °C 1030.5 hPa WNW 4.7 km/h 12.9 km/h 85% 0.0 mm 308 W/m2
08:21 11 °C 8.6 °C 1030.5 hPa WSW 11.1 km/h 12.9 km/h 85% 0.0 mm 315 W/m2
08:26 11 °C 8.6 °C 1030.5 hPa West 14.3 km/h 19.3 km/h 85% 0.0 mm 281 W/m2
08:31 11 °C 8.6 °C 1030.5 hPa West 9.7 km/h 9.7 km/h 85% 0.0 mm 274 W/m2
08:36 11.1 °C 8.5 °C 1030.5 hPa NW 9.7 km/h 17.7 km/h 84% 0.0 mm 304 W/m2
08:41 11.1 °C 8.7 °C 1030.5 hPa NNW 4.7 km/h 9.7 km/h 85% 0.0 mm 329 W/m2
08:46 11.1 °C 8.5 °C 1030.5 hPa NW 14.3 km/h 17.7 km/h 84% 0.0 mm 279 W/m2
08:51 11 °C 8.6 °C 1030.8 hPa SW 13 km/h 16.1 km/h 85% 0.0 mm 287 W/m2
08:57 11 °C 8.6 °C 1030.8 hPa West 6.4 km/h 12.9 km/h 85% 0.0 mm 295 W/m2
09:02 11.1 °C 8.5 °C 1030.8 hPa WNW 6.4 km/h 11.3 km/h 84% 0.0 mm 295 W/m2
09:07 11.1 °C 8.5 °C 1030.8 hPa West 11.1 km/h 22.5 km/h 84% 0.0 mm 295 W/m2
09:12 11.1 °C 8.5 °C 1030.8 hPa WNW 13 km/h 12.9 km/h 84% 0.0 mm 283 W/m2
09:17 11.1 °C 8.3 °C 1030.8 hPa WNW 4.7 km/h 19.3 km/h 83% 0.0 mm 399 W/m2
09:22 11.3 °C 8.7 °C 1031.2 hPa WNW 11.1 km/h 16.1 km/h 84% 0.0 mm 415 W/m2
09:27 11.3 °C 8.5 °C 1030.8 hPa WNW 6.4 km/h 9.7 km/h 83% 0.0 mm 450 W/m2
09:32 11.4 °C 8.6 °C 1031.2 hPa West 14.3 km/h 17.7 km/h 83% 0.0 mm 417 W/m2
09:37 11.6 °C 9 °C 1030.8 hPa WSW 6.4 km/h 11.3 km/h 84% 0.0 mm 622 W/m2
09:42 11.8 °C 8.8 °C 1031.2 hPa NW 6.4 km/h 14.5 km/h 82% 0.0 mm 598 W/m2
09:47 11.9 °C 8.7 °C 1031.2 hPa West 13 km/h 19.3 km/h 81% 0.0 mm 599 W/m2
09:52 12.1 °C 8.9 °C 1031.2 hPa WNW 6.4 km/h 20.9 km/h 81% 0.0 mm 515 W/m2
09:57 12.2 °C 9 °C 1030.8 hPa West 4.7 km/h 6.4 km/h 81% 0.0 mm 171 W/m2
10:02 12.3 °C 8.9 °C 1031.2 hPa NW 7.9 km/h 20.9 km/h 80% 0.0 mm 160 W/m2
10:07 12.4 °C 9 °C 1030.8 hPa West 9.7 km/h 16.1 km/h 80% 0.0 mm 712 W/m2
10:12 12.6 °C 9.2 °C 1031.2 hPa WNW 7.9 km/h 14.5 km/h 80% 0.0 mm 287 W/m2
10:17 12.6 °C 9.1 °C 1030.8 hPa WSW 9.7 km/h 9.7 km/h 79% 0.0 mm 297 W/m2
10:22 12.6 °C 8.9 °C 1031.2 hPa West 4.7 km/h 16.1 km/h 78% 0.0 mm 745 W/m2
10:27 12.8 °C 9.1 °C 1031.2 hPa NW 13 km/h 20.9 km/h 78% 0.0 mm 844 W/m2
10:32 12.8 °C 9.1 °C 1031.2 hPa SW 9.7 km/h 12.9 km/h 78% 0.0 mm 223 W/m2
10:37 12.9 °C 9 °C 1031.2 hPa WSW 6.4 km/h 20.9 km/h 77% 0.0 mm 798 W/m2
10:42 13 °C 9.3 °C 1030.8 hPa NW 22.7 km/h 22.5 km/h 78% 0.0 mm 796 W/m2
10:47 13.2 °C 8.9 °C 1031.2 hPa WNW 3.2 km/h 16.1 km/h 75% 0.0 mm 752 W/m2
10:52 13.4 °C 9.4 °C 1030.8 hPa WSW 13 km/h 14.5 km/h 77% 0.0 mm 809 W/m2
10:57 13.6 °C 9.1 °C 1030.8 hPa West 14.3 km/h 14.5 km/h 74% 0.0 mm 728 W/m2
11:02 13.8 °C 8.8 °C 1030.8 hPa WSW 7.9 km/h 19.3 km/h 72% 0.0 mm 882 W/m2
11:07 13.8 °C 9.2 °C 1030.8 hPa West 9.7 km/h 14.5 km/h 74% 0.0 mm 800 W/m2
11:12 13.9 °C 8.9 °C 1030.8 hPa NW 14.3 km/h 16.1 km/h 72% 0.0 mm 800 W/m2
11:17 13.7 °C 8.7 °C 1030.8 hPa WNW 14.3 km/h 16.1 km/h 72% 0.0 mm 882 W/m2
11:22 13.7 °C 8.5 °C 1030.8 hPa NNW 9.7 km/h 19.3 km/h 71% 0.0 mm 900 W/m2
11:27 13.8 °C 8.6 °C 1030.8 hPa West 17.7 km/h 17.7 km/h 71% 0.0 mm 838 W/m2
11:32 14.1 °C 8.9 °C 1030.8 hPa West 14.3 km/h 20.9 km/h 71% 0.0 mm 1000 W/m2
11:37 14.2 °C 8.8 °C 1030.8 hPa WNW 11.1 km/h 16.1 km/h 70% 0.0 mm 304 W/m2
11:42 14.4 °C 8.6 °C 1030.8 hPa West 16.3 km/h 22.5 km/h 68% 0.0 mm 819 W/m2
11:47 14.6 °C 8.8 °C 1030.8 hPa SW 4.7 km/h 16.1 km/h 68% 0.0 mm 248 W/m2
11:52 14.4 °C 8.6 °C 1031.2 hPa SW 22.5 km/h 22.5 km/h 68% 0.0 mm 267 W/m2
11:57 14.3 °C 8.5 °C 1031.2 hPa NW 7.9 km/h 12.9 km/h 68% 0.0 mm 304 W/m2
12:02 14.2 °C 7.9 °C 1031.2 hPa WNW 14.3 km/h 19.3 km/h 66% 0.0 mm 202 W/m2
12:07 14.1 °C 7.8 °C 1031.2 hPa WNW 9.7 km/h 16.1 km/h 66% 0.0 mm 297 W/m2
12:12 14.2 °C 8.4 °C 1031.2 hPa WNW 11.1 km/h 16.1 km/h 68% 0.0 mm 334 W/m2
12:17 14.2 °C 8.2 °C 1031.2 hPa WNW 19.5 km/h 19.3 km/h 67% 0.0 mm 882 W/m2
12:22 14.6 °C 8.5 °C 1031.2 hPa SW 3.2 km/h 14.5 km/h 67% 0.0 mm 884 W/m2
12:27 14.9 °C 8.8 °C 1031.2 hPa WSW 16.3 km/h 16.1 km/h 67% 0.0 mm 870 W/m2
12:32 15.1 °C 8.3 °C 1031.2 hPa NW 14.3 km/h 16.1 km/h 64% 0.0 mm 867 W/m2
12:38 15.2 °C 8.9 °C 1031.2 hPa West 13 km/h 20.9 km/h 66% 0.0 mm 886 W/m2
12:43 15.2 °C 8.4 °C 1031.2 hPa West 13 km/h 24.1 km/h 64% 0.0 mm 877 W/m2
12:48 15.2 °C 8.2 °C 1030.8 hPa WNW 6.4 km/h 9.7 km/h 63% 0.0 mm 967 W/m2
12:53 15.5 °C 8.7 °C 1030.8 hPa NW 6.4 km/h 9.7 km/h 64% 0.0 mm 930 W/m2
12:58 15.6 °C 8.6 °C 1030.8 hPa NW 9.7 km/h 11.3 km/h 63% 0.0 mm 962 W/m2
13:03 15.7 °C 8.7 °C 1030.8 hPa NW 14.3 km/h 19.3 km/h 63% 0.0 mm 865 W/m2
13:08 15.6 °C 8.3 °C 1030.8 hPa WNW 6.4 km/h 16.1 km/h 62% 0.0 mm 911 W/m2
13:13 15.8 °C 8.3 °C 1030.8 hPa NW 7.9 km/h 17.7 km/h 61% 0.0 mm 889 W/m2
13:18 15.9 °C 8.1 °C 1030.8 hPa NW 11.1 km/h 14.5 km/h 60% 0.0 mm 942 W/m2
13:23 16.1 °C 9.1 °C 1030.8 hPa NNW 7.9 km/h 16.1 km/h 63% 0.0 mm 944 W/m2
13:28 16 °C 8.5 °C 1030.8 hPa WNW 6.4 km/h 11.3 km/h 61% 0.0 mm 543 W/m2
13:33 16.1 °C 8.6 °C 1030.8 hPa NW 9.7 km/h 17.7 km/h 61% 0.0 mm 856 W/m2
13:38 16.2 °C 8.4 °C 1030.5 hPa NW 3.2 km/h 9.7 km/h 60% 0.0 mm 807 W/m2
13:43 16.3 °C 8.3 °C 1030.5 hPa West 6.4 km/h 16.1 km/h 59% 0.0 mm 851 W/m2
13:48 16.4 °C 8.4 °C 1030.5 hPa NW 16.3 km/h 17.7 km/h 59% 0.0 mm 777 W/m2
13:54 16.7 °C 8.1 °C 1030.5 hPa WSW 6.4 km/h 12.9 km/h 57% 0.0 mm 807 W/m2
13:59 16.9 °C 8.6 °C 1030.5 hPa West 6.4 km/h 16.1 km/h 58% 0.0 mm 921 W/m2
14:04 16.9 °C 9.3 °C 1030.5 hPa North 6.4 km/h 9.7 km/h 61% 0.0 mm 802 W/m2
14:09 17.1 °C 8.8 °C 1030.5 hPa WNW 14.3 km/h 19.3 km/h 58% 0.0 mm 253 W/m2
14:14 16.9 °C 8.8 °C 1030.5 hPa West 9.7 km/h 22.5 km/h 59% 0.0 mm 911 W/m2
14:19 16.9 °C 8.6 °C 1030.5 hPa NW 4.7 km/h 14.5 km/h 58% 0.0 mm 867 W/m2
14:24 17.3 °C 9 °C 1030.5 hPa WNW 6.4 km/h 22.5 km/h 58% 0.0 mm 986 W/m2
14:29 17.3 °C 9 °C 1030.8 hPa WNW 13 km/h 14.5 km/h 58% 0.0 mm 251 W/m2
14:34 16.8 °C 8.7 °C 1030.8 hPa West 13 km/h 12.9 km/h 59% 0.0 mm 316 W/m2
14:39 16.6 °C 8.6 °C 1030.8 hPa WNW 4.7 km/h 11.3 km/h 59% 0.0 mm 258 W/m2
14:44 16.6 °C 8.8 °C 1030.8 hPa West 6.4 km/h 19.3 km/h 60% 0.0 mm 223 W/m2
14:49 16.4 °C 8.6 °C 1030.8 hPa WNW 4.7 km/h 19.3 km/h 60% 0.0 mm 338 W/m2
14:54 16.5 °C 8.7 °C 1030.8 hPa WNW 4.7 km/h 14.5 km/h 60% 0.0 mm 475 W/m2
14:59 16.6 °C 8.8 °C 1030.8 hPa NW 4.7 km/h 17.7 km/h 60% 0.0 mm 295 W/m2
15:04 16.4 °C 8.6 °C 1031.2 hPa WSW 13 km/h 14.5 km/h 60% 0.0 mm 318 W/m2
15:09 16.3 °C 8.8 °C 1031.2 hPa NW 6.4 km/h 9.7 km/h 61% 0.0 mm 318 W/m2
15:14 16.3 °C 8.8 °C 1030.8 hPa West 9.7 km/h 9.7 km/h 61% 0.0 mm 362 W/m2
15:19 16.5 °C 9.2 °C 1030.8 hPa West 6.4 km/h 11.3 km/h 62% 0.0 mm 350 W/m2
15:24 16.6 °C 9 °C 1030.8 hPa West 14.3 km/h 14.5 km/h 61% 0.0 mm 299 W/m2
15:29 16.6 °C 9 °C 1030.8 hPa NW 7.9 km/h 17.7 km/h 61% 0.0 mm 269 W/m2
15:34 16.7 °C 9.4 °C 1030.8 hPa WNW 6.4 km/h 12.9 km/h 62% 0.0 mm 380 W/m2
15:39 16.7 °C 9.1 °C 1031.2 hPa NNW 6.4 km/h 17.7 km/h 61% 0.0 mm 355 W/m2
15:44 16.6 °C 9.3 °C 1030.8 hPa WNW 4.7 km/h 11.3 km/h 62% 0.0 mm 229 W/m2
15:49 16.5 °C 9.2 °C 1031.2 hPa West 3.2 km/h 12.9 km/h 62% 0.0 mm 318 W/m2
15:54 16.6 °C 9.5 °C 1030.8 hPa WNW 11.1 km/h 16.1 km/h 63% 0.0 mm 432 W/m2
15:59 17 °C 9.9 °C 1030.8 hPa WNW 3.2 km/h 11.3 km/h 63% 0.0 mm 605 W/m2
16:04 17.6 °C 9.5 °C 1030.8 hPa WNW 6.4 km/h 16.1 km/h 59% 0.0 mm 410 W/m2
16:09 17.6 °C 9.7 °C 1030.8 hPa West 6.4 km/h 9.7 km/h 60% 0.0 mm 863 W/m2
16:14 17.5 °C 9.6 °C 1030.8 hPa WNW 11.1 km/h 14.5 km/h 60% 0.0 mm 450 W/m2
16:19 17.4 °C 9.6 °C 1030.8 hPa NNW 3.2 km/h 8 km/h 60% 0.0 mm 320 W/m2
16:24 17.3 °C 9.7 °C 1030.8 hPa SW 14.3 km/h 17.7 km/h 61% 0.0 mm 251 W/m2
16:29 17.2 °C 9.6 °C 1031.2 hPa West 16.3 km/h 20.9 km/h 61% 0.0 mm 844 W/m2
16:34 17.5 °C 10.1 °C 1030.8 hPa West 13 km/h 12.9 km/h 62% 0.0 mm 394 W/m2
16:39 17.4 °C 9.8 °C 1030.8 hPa West 6.4 km/h 20.9 km/h 61% 0.0 mm 302 W/m2
16:44 17.3 °C 9.5 °C 1030.8 hPa NW 3.2 km/h 12.9 km/h 60% 0.0 mm 246 W/m2
16:49 17.3 °C 9.7 °C 1030.8 hPa WNW 7.9 km/h 16.1 km/h 61% 0.0 mm 197 W/m2
16:54 17.1 °C 9.8 °C 1030.8 hPa West 4.7 km/h 9.7 km/h 62% 0.0 mm 239 W/m2
16:59 17.1 °C 9.8 °C 1030.8 hPa NW 6.4 km/h 14.5 km/h 62% 0.0 mm 343 W/m2
17:04 17.3 °C 9.9 °C 1030.5 hPa NW 6.4 km/h 12.9 km/h 62% 0.0 mm 336 W/m2
17:09 17.4 °C 9.8 °C 1030.8 hPa West 9.7 km/h 11.3 km/h 61% 0.0 mm 302 W/m2
17:15 17.4 °C 9.8 °C 1030.5 hPa WNW 13 km/h 19.3 km/h 61% 0.0 mm 327 W/m2
17:20 17.4 °C 9.8 °C 1030.5 hPa NW 11.1 km/h 16.1 km/h 61% 0.0 mm 392 W/m2
17:25 17.3 °C 9.7 °C 1030.5 hPa WNW 4.7 km/h 19.3 km/h 61% 0.0 mm 283 W/m2
17:30 17.4 °C 10 °C 1030.5 hPa WSW 6.4 km/h 12.9 km/h 62% 0.0 mm 585 W/m2
17:35 17.7 °C 9.8 °C 1030.5 hPa West 4.7 km/h 14.5 km/h 60% 0.0 mm 352 W/m2
17:40 17.6 °C 10 °C 1030.5 hPa WNW 6.4 km/h 19.3 km/h 61% 0.0 mm 211 W/m2
17:45 17.6 °C 10.2 °C 1030.5 hPa WSW 6.4 km/h 11.3 km/h 62% 0.0 mm 197 W/m2
17:50 17.8 °C 9.9 °C 1030.5 hPa WNW 14.3 km/h 19.3 km/h 60% 0.0 mm 468 W/m2
17:55 17.8 °C 9.7 °C 1030.5 hPa WNW 11.1 km/h 17.7 km/h 59% 0.0 mm 432 W/m2
18:00 17.8 °C 9.7 °C 1030.5 hPa West 13 km/h 16.1 km/h 59% 0.0 mm 417 W/m2
18:05 17.9 °C 9.8 °C 1030.5 hPa North 11.1 km/h 17.7 km/h 59% 0.0 mm 388 W/m2
18:10 17.9 °C 9.8 °C 1030.5 hPa WNW 11.1 km/h 16.1 km/h 59% 0.0 mm 443 W/m2
18:15 17.9 °C 10 °C 1030.5 hPa West 9.7 km/h 14.5 km/h 60% 0.0 mm 403 W/m2
18:20 17.9 °C 10 °C 1030.5 hPa WNW 6.4 km/h 16.1 km/h 60% 0.0 mm 396 W/m2
18:25 18.1 °C 10.2 °C 1030.5 hPa WNW 6.4 km/h 16.1 km/h 60% 0.0 mm 362 W/m2
18:30 17.9 °C 10 °C 1030.5 hPa NW 13 km/h 16.1 km/h 60% 0.0 mm 253 W/m2
18:35 17.8 °C 9.9 °C 1030.5 hPa WNW 6.4 km/h 12.9 km/h 60% 0.0 mm 255 W/m2
18:40 17.7 °C 9.8 °C 1030.5 hPa WNW 6.4 km/h 25.7 km/h 60% 0.0 mm 257 W/m2
18:45 17.5 °C 9.9 °C 1030.5 hPa NW 16.3 km/h 16.1 km/h 61% 0.0 mm 244 W/m2
18:50 17.4 °C 9.8 °C 1030.5 hPa WSW 4.7 km/h 14.5 km/h 61% 0.0 mm 186 W/m2
18:55 17.4 °C 10.3 °C 1030.5 hPa West 9.7 km/h 9.7 km/h 63% 0.0 mm 223 W/m2
19:00 17.5 °C 10.4 °C 1030.5 hPa WNW 3.2 km/h 9.7 km/h 63% 0.0 mm 216 W/m2
19:05 17.6 °C 9.7 °C 1030.5 hPa WNW 7.9 km/h 20.9 km/h 60% 0.0 mm 213 W/m2
19:10 17.5 °C 10.1 °C 1030.5 hPa NW 7.9 km/h 14.5 km/h 62% 0.0 mm 195 W/m2
19:15 17.4 °C 10.3 °C 1030.5 hPa WNW 6.4 km/h 20.9 km/h 63% 0.0 mm 216 W/m2
19:21 17.4 °C 10.3 °C 1030.5 hPa West 6.4 km/h 12.9 km/h 63% 0.0 mm 237 W/m2
19:26 17.6 °C 10.2 °C 1030.5 hPa WNW 4.7 km/h 17.7 km/h 62% 0.0 mm 246 W/m2
19:31 17.6 °C 10 °C 1030.5 hPa WNW 6.4 km/h 20.9 km/h 61% 0.0 mm 230 W/m2
19:36 17.4 °C 9.8 °C 1030.5 hPa NW 9.7 km/h 12.9 km/h 61% 0.0 mm 193 W/m2
19:41 17.3 °C 9.7 °C 1030.5 hPa West 6.4 km/h 17.7 km/h 61% 0.0 mm 178 W/m2
19:46 17.1 °C 10 °C 1030.5 hPa WNW 11.1 km/h 17.7 km/h 63% 0.0 mm 86 W/m2
19:51 16.8 °C 9.7 °C 1030.5 hPa West 9.7 km/h 19.3 km/h 63% 0.0 mm 93 W/m2
19:56 16.6 °C 9.8 °C 1030.5 hPa West 13 km/h 12.9 km/h 64% 0.0 mm 91 W/m2
20:01 16.7 °C 10.1 °C 1030.5 hPa West 11.1 km/h 19.3 km/h 65% 0.0 mm 128 W/m2
20:06 16.7 °C 10.1 °C 1030.5 hPa West 6.4 km/h 6.4 km/h 65% 0.0 mm 111 W/m2
20:11 16.8 °C 10.2 °C 1030.8 hPa West 6.4 km/h 14.5 km/h 65% 0.0 mm 107 W/m2
20:16 16.7 °C 10.3 °C 1030.8 hPa WSW 6.4 km/h 12.9 km/h 66% 0.0 mm 95 W/m2
20:21 16.6 °C 10.2 °C 1030.8 hPa West 3.2 km/h 14.5 km/h 66% 0.0 mm 91 W/m2
20:26 16.6 °C 10.4 °C 1030.8 hPa WNW 4.7 km/h 6.4 km/h 67% 0.0 mm 84 W/m2
20:31 16.6 °C 10.4 °C 1030.8 hPa WNW 4.7 km/h 12.9 km/h 67% 0.0 mm 77 W/m2
20:36 16.4 °C 10.3 °C 1030.8 hPa West 6.4 km/h 9.7 km/h 67% 0.0 mm 44 W/m2
20:41 16.2 °C 10.3 °C 1030.8 hPa WSW 4.7 km/h 8 km/h 68% 0.0 mm 30 W/m2
20:46 15.9 °C 10.2 °C 1031.2 hPa West 3.2 km/h 9.7 km/h 69% 0.0 mm 25 W/m2
20:51 15.7 °C 10.2 °C 1031.2 hPa WSW 7.9 km/h 11.3 km/h 70% 0.0 mm 23 W/m2
20:56 15.6 °C 10.4 °C 1031.2 hPa WNW 4.7 km/h 9.7 km/h 71% 0.0 mm 19 W/m2
21:01 15.4 °C 10.2 °C 1031.2 hPa West 11.1 km/h 11.3 km/h 71% 0.0 mm 14 W/m2
21:06 15.3 °C 10.3 °C 1031.2 hPa WSW 4.7 km/h 6.4 km/h 72% 0.0 mm 12 W/m2
21:11 15.2 °C 10.2 °C 1031.2 hPa West 3.2 km/h 6.4 km/h 72% 0.0 mm 11 W/m2
21:16 15 °C 10.2 °C 1031.2 hPa Calm   3.2 km/h 73% 0.0 mm 7 W/m2
21:21 14.9 °C 10.1 °C 1031.2 hPa WSW 3.2 km/h 4.8 km/h 73% 0.0 mm 0 W/m2
21:26 14.8 °C 10.2 °C 1031.2 hPa West 3.2 km/h 4.8 km/h 74% 0.0 mm 0 W/m2
21:31 14.7 °C 10.1 °C 1031.2 hPa West 4.7 km/h 4.8 km/h 74% 0.0 mm 0 W/m2
21:36 14.7 °C 10.3 °C 1031.2 hPa West 1.4 km/h 1.6 km/h 75% 0.0 mm 0 W/m2
21:41 14.6 °C 10.2 °C 1031.5 hPa West 1.4 km/h 4.8 km/h 75% 0.0 mm 0 W/m2
21:46 14.3 °C 10.1 °C 1031.5 hPa Calm     76% 0.0 mm 0 W/m2
21:52 14.2 °C 10.4 °C 1031.5 hPa West 1.4 km/h 1.6 km/h 78% 0.0 mm 0 W/m2
21:57 13.9 °C 10.3 °C 1031.5 hPa West 1.4 km/h 1.6 km/h 79% 0.0 mm 0 W/m2
22:02 13.8 °C 10.4 °C 1031.5 hPa Calm     80% 0.0 mm 0 W/m2
22:07 13.7 °C 10.5 °C 1031.5 hPa Calm     81% 0.0 mm 0 W/m2
22:12 13.6 °C 10.4 °C 1031.5 hPa Calm     81% 0.0 mm 0 W/m2
22:17 13.4 °C 10.4 °C 1031.5 hPa Calm     82% 0.0 mm 0 W/m2
22:22 13.3 °C 10.3 °C 1031.5 hPa Calm     82% 0.0 mm 0 W/m2
22:27 13.3 °C 10.5 °C 1031.5 hPa Calm     83% 0.0 mm 0 W/m2
22:32 13.2 °C 10.4 °C 1031.5 hPa Calm     83% 0.0 mm 0 W/m2
22:37 13.2 °C 10.4 °C 1031.5 hPa Calm   1.6 km/h 83% 0.0 mm 0 W/m2
22:42 13.2 °C 10.4 °C 1031.5 hPa Calm     83% 0.0 mm 0 W/m2
22:47 13.1 °C 10.5 °C 1031.5 hPa Calm     84% 0.0 mm 0 W/m2
22:52 13.1 °C 10.5 °C 1031.5 hPa Calm     84% 0.0 mm 0 W/m2
22:57 13.1 °C 10.5 °C 1031.5 hPa Calm     84% 0.0 mm 0 W/m2
23:02 12.9 °C 10.3 °C 1031.5 hPa Calm     84% 0.0 mm 0 W/m2
23:07 12.8 °C 10.2 °C 1031.5 hPa Calm     84% 0.0 mm 0 W/m2
23:12 12.7 °C 10.2 °C 1031.5 hPa West 3.2 km/h 3.2 km/h 85% 0.0 mm 0 W/m2
23:17 12.6 °C 10.3 °C 1031.8 hPa Calm   3.2 km/h 86% 0.0 mm 0 W/m2
23:22 12.4 °C 10.1 °C 1031.8 hPa Calm   1.6 km/h 86% 0.0 mm 0 W/m2
23:27 12.3 °C 10 °C 1031.8 hPa Calm   1.6 km/h 86% 0.0 mm 0 W/m2
23:32 12.2 °C 10.1 °C 1031.8 hPa Calm     87% 0.0 mm 0 W/m2
23:37 12.1 °C 10 °C 1031.8 hPa Calm   1.6 km/h 87% 0.0 mm 0 W/m2
23:42 11.9 °C 10 °C 1031.8 hPa SSW 3.2 km/h 3.2 km/h 88% 0.0 mm 0 W/m2
23:47 11.8 °C 9.9 °C 1031.8 hPa Calm   1.6 km/h 88% 0.0 mm 0 W/m2
23:52 11.8 °C 9.9 °C 1031.5 hPa Calm     88% 0.0 mm 0 W/m2
23:57 11.8 °C 9.9 °C 1031.8 hPa Calm     88% 0.0 mm 0 W/m2
Juneau County Weather
Compliments of Weather Underground - 4 mb